Soldotna, AK

2:02 AM AKDT on August 20, 2017 (GMT -0800)
Soldotna

Weather History for PASX - June, 2014

Change the Weather History Date:

Monday, June 9, 2014

  Actual Average Record
Temperature  
Mean Temperature 45 °F -  
Max Temperature 53 °F 58 °F 71 °F (2013)
Min Temperature 37 °F 42 °F 30 °F (1985)
Degree Days  
Heating Degree Days 20    
Moisture  
Dew Point 40 °F    
Average Humidity 78    
Maximum Humidity 93    
Minimum Humidity 62    
Precipitation  
Precipitation 0.03 in - - ()
Sea Level Pressure  
Sea Level Pressure 29.93 in    
Wind  
Wind Speed 3 mph (WSW)    
Max Wind Speed 13 mph    
Max Gust Speed 16 mph    
Visibility 10 miles    
Events      
Averages and records for this station are not official NWS values.
T = Trace of Precipitation, MM = Missing Value Source: NWS Daily Summary

Daily Weather History Graph

Daily Weather History Graph

Search for Another Location

Airport or City:

Trip Planner

Search our weather history database for the weather conditions in past years. The results will help you decide how hot, cold, wet, or windy it might be!

Date:

Astronomy

Jun. 09, 2014 Rise Set
Actual Time 4:38 AM AKDT 11:29 PM AKDT
Civil Twilight 2:51 AM AKDT 1:18 AM AKDT
Nautical Twilight Sun does not set Sun does not set
Astronomical Twilight Sun does not set Sun does not set
Moon 7:01 PM AKDT (6/9) 3:22 AM AKDT (6/9)
Length of Visible Light 22h 26m
Length of Day
18h 50m
Waxing Gibbous, 86% of the Moon is Illuminated
Jun 9
Waxing Gibbous
Jun 12
Full
Jun 19
Last Quarter
Jun 27
New
Jul 5
First Quarter

Hourly Weather History & Observations

Time (AKDT) Temp. Windchill Dew Point Humidity Pressure Visibility Wind Dir Wind Speed Gust Speed Precip Events Conditions
12:16 AM 44.6 °F - 37.4 °F 76% 29.84 in 10.0 mi Calm Calm - N/A   Clear
12:36 AM 42.8 °F - 35.6 °F 76% 29.84 in 10.0 mi Calm Calm - N/A   Clear
12:56 AM 42.8 °F - 35.6 °F 76% 29.85 in 10.0 mi Calm Calm - N/A   Clear
1:16 AM 41.0 °F - 33.8 °F 76% 29.85 in 10.0 mi Calm Calm - N/A   Clear
1:36 AM 41.0 °F - 35.6 °F 81% 29.85 in 10.0 mi Calm Calm - N/A   Clear
1:56 AM 39.2 °F - 35.6 °F 87% 29.85 in 10.0 mi Calm Calm - N/A   Clear
2:16 AM 41.0 °F - 33.8 °F 76% 29.86 in 10.0 mi Calm Calm - N/A   Clear
2:36 AM 39.2 °F - 33.8 °F 81% 29.86 in 10.0 mi Calm Calm - N/A   Clear
2:56 AM 37.4 °F - 33.8 °F 87% 29.87 in 10.0 mi Calm Calm - N/A   Clear
3:16 AM 39.2 °F - 33.8 °F 81% 29.87 in 10.0 mi Calm Calm - N/A   Clear
3:36 AM 37.4 °F 34.9 °F 33.8 °F 87% 29.87 in 10.0 mi East 3.5 mph - N/A   Clear
3:56 AM 39.2 °F - 35.6 °F 87% 29.87 in 10.0 mi Calm Calm - N/A   Clear
4:16 AM 39.2 °F 37.0 °F 35.6 °F 87% 29.87 in 10.0 mi ESE 3.5 mph - N/A   Clear
4:36 AM 39.2 °F 37.0 °F 35.6 °F 87% 29.88 in 10.0 mi East 3.5 mph - N/A   Clear
4:56 AM 37.4 °F 33.8 °F 33.8 °F 87% 29.88 in 10.0 mi East 4.6 mph - N/A   Clear
5:16 AM 39.2 °F 37.0 °F 35.6 °F 87% 29.88 in 10.0 mi ENE 3.5 mph - N/A   Clear
5:36 AM 39.2 °F 37.0 °F 35.6 °F 87% 29.88 in 10.0 mi East 3.5 mph - N/A   Clear
5:56 AM 41.0 °F 39.0 °F 35.6 °F 81% 29.88 in 10.0 mi East 3.5 mph - N/A   Partly Cloudy
6:16 AM 42.8 °F - 35.6 °F 76% 29.89 in 10.0 mi Calm Calm - N/A   Mostly Cloudy
6:36 AM 42.8 °F 41.1 °F 37.4 °F 81% 29.89 in 10.0 mi ENE 3.5 mph - N/A   Mostly Cloudy
7:16 AM 44.6 °F - 37.4 °F 76% 29.89 in 10.0 mi Calm Calm - N/A   Clear
7:36 AM 44.6 °F - 39.2 °F 81% 29.89 in 10.0 mi Calm Calm - N/A   Clear
7:56 AM 46.4 °F - 39.2 °F 76% 29.89 in 10.0 mi Calm Calm - N/A   Clear
8:36 AM 48.2 °F - 39.2 °F 71% 29.90 in 10.0 mi Calm Calm - N/A   Clear
8:56 AM 51.8 °F - 41.0 °F 67% 29.90 in 10.0 mi Calm Calm - N/A   Clear
9:16 AM 51.8 °F - 39.2 °F 62% 29.90 in 10.0 mi NW 3.5 mph - N/A   Clear
9:36 AM 53.6 °F - 41.0 °F 62% 29.90 in 10.0 mi Calm Calm - N/A   Scattered Clouds
9:56 AM 53.6 °F - 42.8 °F 67% 29.90 in 10.0 mi West 5.8 mph - N/A   Mostly Cloudy
10:16 AM 53.6 °F - 42.8 °F 67% 29.90 in 10.0 mi NW 3.5 mph - N/A   Overcast
10:36 AM 53.6 °F - 42.8 °F 67% 29.91 in 10.0 mi West 10.4 mph - N/A   Overcast
12:16 PM 53.6 °F - 41.0 °F 62% 29.93 in 10.0 mi WNW 12.7 mph - N/A   Overcast
12:36 PM 53.6 °F - 41.0 °F 62% 29.93 in 10.0 mi West 11.5 mph - N/A   Overcast
12:56 PM 51.8 °F - 42.8 °F 71% 29.94 in 10.0 mi West 9.2 mph - N/A   Overcast
1:16 PM 51.8 °F - 42.8 °F 71% 29.94 in 10.0 mi West 8.1 mph - N/A   Overcast
1:36 PM 51.8 °F - 42.8 °F 71% 29.95 in 10.0 mi West 8.1 mph - N/A   Overcast
1:56 PM 53.6 °F - 42.8 °F 67% 29.95 in 10.0 mi West 9.2 mph - N/A   Overcast
2:16 PM 51.8 °F - 42.8 °F 71% 29.95 in 10.0 mi WSW 10.4 mph - N/A   Overcast
2:36 PM 51.8 °F - 44.6 °F 76% 29.95 in 10.0 mi West 8.1 mph - N/A   Overcast
2:56 PM 53.6 °F - 42.8 °F 67% 29.95 in 10.0 mi West 10.4 mph - N/A   Overcast
3:16 PM 51.8 °F - 41.0 °F 67% 29.95 in 10.0 mi West 10.4 mph - N/A   Overcast
3:36 PM 51.8 °F - 41.0 °F 67% 29.96 in 10.0 mi West 11.5 mph - N/A   Overcast
3:56 PM 51.8 °F - 41.0 °F 67% 29.96 in 10.0 mi West 10.4 mph - N/A   Overcast
4:16 PM 48.2 °F - 42.8 °F 82% 29.97 in 10.0 mi West 10.4 mph 16.1 mph N/A   Mostly Cloudy
4:36 PM 48.2 °F - 42.8 °F 82% 29.97 in 10.0 mi WSW 5.8 mph - 0.01 in   Overcast
4:56 PM 48.2 °F - 42.8 °F 82% 29.98 in 10.0 mi Calm Calm - 0.02 in   Overcast
5:16 PM 48.2 °F - 42.8 °F 82% 29.97 in 10.0 mi WSW 4.6 mph - N/A   Overcast
5:36 PM 50.0 °F - 44.6 °F 82% 29.97 in 10.0 mi WSW 5.8 mph - N/A   Overcast
5:56 PM 50.0 °F - 44.6 °F 82% 29.97 in 10.0 mi WSW 6.9 mph - N/A   Overcast
6:16 PM 50.0 °F - 42.8 °F 76% 29.97 in 10.0 mi WSW 6.9 mph - N/A   Overcast
6:36 PM 50.0 °F - 44.6 °F 82% 29.97 in 10.0 mi WSW 4.6 mph - N/A   Mostly Cloudy
6:56 PM 48.2 °F - 41.0 °F 76% 29.98 in 10.0 mi West 8.1 mph - N/A   Overcast
7:16 PM 48.2 °F - 42.8 °F 82% 29.98 in 10.0 mi West 5.8 mph - 0.01 in   Overcast
7:36 PM 48.2 °F - 42.8 °F 82% 29.98 in 10.0 mi West 4.6 mph - 0.01 in   Overcast
7:56 PM 48.2 °F - 42.8 °F 82% 29.98 in 10.0 mi SSW 4.6 mph - 0.01 in   Overcast
8:16 PM 48.2 °F - 42.8 °F 82% 29.98 in 10.0 mi WSW 4.6 mph - N/A   Overcast
8:36 PM 48.2 °F - 42.8 °F 82% 29.98 in 10.0 mi SW 4.6 mph - N/A   Overcast
8:56 PM 48.2 °F - 42.8 °F 82% 29.98 in 10.0 mi SW 3.5 mph - N/A   Overcast
9:16 PM 48.2 °F - 42.8 °F 82% 29.98 in 10.0 mi Calm Calm - N/A   Overcast
9:36 PM 48.2 °F - 42.8 °F 82% 29.98 in 10.0 mi Calm Calm - N/A   Overcast
9:56 PM 48.2 °F - 42.8 °F 82% 29.98 in 10.0 mi Calm Calm - N/A   Overcast
10:16 PM 48.2 °F - 42.8 °F 82% 29.99 in 10.0 mi Calm Calm - N/A   Overcast
10:36 PM 48.2 °F - 44.6 °F 87% 29.99 in 10.0 mi Calm Calm - N/A   Mostly Cloudy
10:56 PM 48.2 °F - 42.8 °F 82% 29.99 in 10.0 mi Calm Calm - N/A   Overcast
11:16 PM 48.2 °F - 44.6 °F 87% 29.99 in 10.0 mi South 3.5 mph - N/A   Overcast
11:36 PM 46.4 °F - 44.6 °F 93% 29.99 in 10.0 mi Calm Calm - N/A   Overcast
11:56 PM 46.4 °F - 42.8 °F 87% 29.99 in 8.0 mi Calm Calm - N/A   Overcast